Time,TemperatureF,DewpointF,PressureIn,WindDirection,WindDirectionDegrees,WindSpeedMPH,WindSpeedGustMPH,Humidity,HourlyPrecipIn,Conditions,Clouds,dailyrainin,SoftwareType,DateUTC
2013-03-29 00:00:00,45.7,37.9,30.07,NNE,32,0.0,0.0,74,0.00,RA,SKC,0.00,WeatherDisplay:10.37,2013-03-28 13:00:00,
2013-03-29 00:05:00,45.7,38.2,30.07,NNE,32,0.0,0.0,75,0.00,RA,SKC,0.00,WeatherDisplay:10.37,2013-03-28 13:05:00,
2013-03-29 00:10:00,45.7,38.2,30.07,NE,53,0.0,0.0,75,0.00,CLR,SKC,0.00,WeatherDisplay:10.37,2013-03-28 13:10:00,
2013-03-29 00:15:00,45.5,38.0,30.07,East,93,0.0,0.0,75,0.00,CLR,SKC,0.00,WeatherDisplay:10.37,2013-03-28 13:15:00,
2013-03-29 00:20:00,45.3,37.9,30.07,SSW,210,0.0,0.0,75,0.00,CLR,SKC,0.00,WeatherDisplay:10.37,2013-03-28 13:20:00,
2013-03-29 00:25:00,45.1,37.7,30.07,SW,236,0.0,0.0,75,0.00,CLR,SKC,0.00,WeatherDisplay:10.37,2013-03-28 13:25:00,
2013-03-29 00:30:00,45.3,38.2,30.07,WSW,247,0.0,0.0,76,0.00,CLR,SKC,0.00,WeatherDisplay:10.37,2013-03-28 13:30:00,
2013-03-29 00:35:00,45.5,38.4,30.07,SW,225,0.0,0.0,76,0.00,CLR,SKC,0.00,WeatherDisplay:10.37,2013-03-28 13:35:00,
2013-03-29 00:40:00,45.5,38.4,30.07,WSW,238,0.0,0.0,76,0.00,CLR,SKC,0.00,WeatherDisplay:10.37,2013-03-28 13:40:00,
2013-03-29 00:45:00,45.7,38.5,30.07,WSW,242,0.0,0.0,76,0.00,CLR,SKC,0.00,WeatherDisplay:10.37,2013-03-28 13:45:00,
2013-03-29 00:50:00,45.9,38.8,30.07,WSW,248,0.0,0.0,76,0.00,CLR,SKC,0.00,WeatherDisplay:10.37,2013-03-28 13:50:00,
2013-03-29 00:55:00,46.0,38.9,30.07,WSW,248,0.0,0.0,76,0.00,CLR,SKC,0.00,WeatherDisplay:10.37,2013-03-28 13:55:00,
2013-03-29 01:00:00,46.0,38.9,30.07,WSW,248,0.0,0.0,76,0.00,CLR,SKC,0.00,WeatherDisplay:10.37,2013-03-28 14:00:00,
2013-03-29 01:05:00,46.0,38.9,30.07,SE,135,0.0,0.0,76,0.00,CLR,SKC,0.00,WeatherDisplay:10.37,2013-03-28 14:05:00,
2013-03-29 01:10:00,46.0,38.9,30.07,SW,225,0.0,0.0,76,0.00,CLR,SKC,0.00,WeatherDisplay:10.37,2013-03-28 14:10:00,
2013-03-29 01:15:00,46.0,38.9,30.06,SW,225,0.0,0.0,76,0.00,CLR,SKC,0.00,WeatherDisplay:10.37,2013-03-28 14:15:00,
2013-03-29 01:20:00,46.0,38.9,30.07,West,270,0.0,0.0,76,0.00,CLR,SKC,0.00,WeatherDisplay:10.37,2013-03-28 14:20:00,
2013-03-29 01:25:00,46.0,38.9,30.07,WNW,292,0.0,0.0,76,0.00,CLR,SKC,0.00,WeatherDisplay:10.37,2013-03-28 14:25:00,
2013-03-29 01:31:00,46.0,38.9,30.06,NNE,22,0.0,0.0,76,0.00,CLR,SKC,0.00,WeatherDisplay:10.37,2013-03-28 14:31:00,
2013-03-29 01:36:00,46.2,39.1,30.06,NE,45,0.0,0.0,76,0.00,CLR,SKC,0.00,WeatherDisplay:10.37,2013-03-28 14:36:00,
2013-03-29 01:41:00,46.2,39.1,30.06,NE,45,0.0,0.0,76,0.00,CLR,SKC,0.00,WeatherDisplay:10.37,2013-03-28 14:41:00,
2013-03-29 01:46:00,46.2,39.1,30.07,NNE,22,0.0,0.0,76,0.00,CLR,SKC,0.00,WeatherDisplay:10.37,2013-03-28 14:46:00,
2013-03-29 01:51:00,46.2,39.1,30.07,North,0,0.0,0.0,76,0.00,CLR,SKC,0.00,WeatherDisplay:10.37,2013-03-28 14:51:00,
2013-03-29 01:56:00,46.6,39.4,30.06,SW,225,0.0,0.0,76,0.00,CLR,SKC,0.00,WeatherDisplay:10.37,2013-03-28 14:56:00,
2013-03-29 02:01:00,46.6,39.4,30.07,SSW,202,0.0,0.0,76,0.00,CLR,SKC,0.00,WeatherDisplay:10.37,2013-03-28 15:01:00,
2013-03-29 02:06:00,46.8,39.9,30.07,SW,225,0.0,0.0,77,0.00,CLR,SKC,0.00,WeatherDisplay:10.37,2013-03-28 15:06:00,
2013-03-29 02:11:00,46.8,39.9,30.06,SSE,158,0.0,0.0,77,0.00,CLR,SKC,0.00,WeatherDisplay:10.37,2013-03-28 15:11:00,
2013-03-29 02:16:00,46.9,39.8,30.07,SSW,202,0.0,0.0,76,0.00,CLR,SKC,0.00,WeatherDisplay:10.37,2013-03-28 15:16:00,
2013-03-29 02:21:00,47.1,39.9,30.07,ENE,68,0.0,0.0,76,0.00,CLR,SKC,0.00,WeatherDisplay:10.37,2013-03-28 15:21:00,
2013-03-29 02:26:00,47.1,40.3,30.07,ENE,68,0.0,0.0,77,0.00,CLR,SKC,0.00,WeatherDisplay:10.37,2013-03-28 15:26:00,
2013-03-29 02:32:00,47.3,40.5,30.07,NE,45,0.0,0.0,77,0.00,CLR,SKC,0.00,WeatherDisplay:10.37,2013-03-28 15:32:00,
2013-03-29 02:37:00,47.3,40.1,30.07,NNE,22,0.0,0.0,76,0.00,CLR,SKC,0.00,WeatherDisplay:10.37,2013-03-28 15:37:00,
2013-03-29 02:42:00,47.5,40.3,30.07,NNE,22,1.6,1.6,76,0.00,CLR,SKC,0.00,WeatherDisplay:10.37,2013-03-28 15:42:00,
2013-03-29 02:47:00,47.3,40.1,30.07,NNE,22,0.7,0.7,76,0.00,CLR,SKC,0.00,WeatherDisplay:10.37,2013-03-28 15:47:00,
2013-03-29 02:52:00,47.1,39.6,30.07,North,0,0.0,0.0,75,0.00,CLR,SKC,0.00,WeatherDisplay:10.37,2013-03-28 15:52:00,
2013-03-29 02:57:00,47.1,39.6,30.07,NNE,22,0.0,0.0,75,0.00,CLR,SKC,0.00,WeatherDisplay:10.37,2013-03-28 15:57:00,
2013-03-29 03:02:00,47.1,39.6,30.06,NNW,338,0.0,0.0,75,0.00,CLR,SKC,0.00,WeatherDisplay:10.37,2013-03-28 16:02:00,
2013-03-29 03:07:00,46.9,39.4,30.06,NNE,22,0.0,0.0,75,0.00,CLR,SKC,0.00,WeatherDisplay:10.37,2013-03-28 16:07:00,
2013-03-29 03:12:00,46.6,39.1,30.06,NNE,22,0.0,0.0,75,0.00,CLR,SKC,0.00,WeatherDisplay:10.37,2013-03-28 16:12:00,
2013-03-29 03:18:00,46.6,39.1,30.06,ENE,68,0.0,0.0,75,0.00,CLR,SKC,0.00,WeatherDisplay:10.37,2013-03-28 16:18:00,
2013-03-29 03:23:00,46.2,38.7,30.06,NNE,22,0.0,0.0,75,0.00,CLR,SKC,0.00,WeatherDisplay:10.37,2013-03-28 16:23:00,
2013-03-29 03:28:00,46.0,38.6,30.06,ENE,68,0.0,0.0,75,0.00,CLR,SKC,0.00,WeatherDisplay:10.37,2013-03-28 16:28:00,
2013-03-29 03:33:00,45.9,38.7,30.06,NNE,22,0.0,0.0,76,0.00,CLR,SKC,0.00,WeatherDisplay:10.37,2013-03-28 16:33:00,
2013-03-29 03:38:00,45.7,38.5,30.06,NE,45,0.0,0.0,76,0.00,CLR,SKC,0.00,WeatherDisplay:10.37,2013-03-28 16:38:00,
2013-03-29 03:43:00,45.3,37.9,30.06,North,0,0.0,0.0,75,0.00,CLR,SKC,0.00,WeatherDisplay:10.37,2013-03-28 16:43:00,
2013-03-29 03:49:00,45.1,37.7,30.06,SE,135,0.0,0.0,75,0.00,CLR,SKC,0.00,WeatherDisplay:10.37,2013-03-28 16:49:00,
2013-03-29 03:54:00,45.0,37.8,30.06,ENE,68,0.0,0.0,76,0.00,CLR,SKC,0.00,WeatherDisplay:10.37,2013-03-28 16:54:00,
2013-03-29 03:59:00,44.8,37.7,30.06,NNE,22,0.0,0.0,76,0.00,CLR,SKC,0.00,WeatherDisplay:10.37,2013-03-28 16:59:00,
2013-03-29 04:04:00,44.8,38.0,30.05,NNE,22,0.0,0.0,77,0.00,CLR,SKC,0.00,WeatherDisplay:10.37,2013-03-28 17:04:00,
2013-03-29 04:09:00,45.0,38.2,30.06,North,0,0.0,0.0,77,0.00,CLR,SKC,0.00,WeatherDisplay:10.37,2013-03-28 17:09:00,
2013-03-29 04:14:00,45.1,38.4,30.05,NNE,22,0.0,0.0,77,0.00,CLR,SKC,0.00,WeatherDisplay:10.37,2013-03-28 17:14:00,
2013-03-29 04:19:00,45.1,38.4,30.05,NNE,22,0.0,0.0,77,0.00,CLR,SKC,0.00,WeatherDisplay:10.37,2013-03-28 17:19:00,
2013-03-29 04:25:00,45.1,38.4,30.05,NNE,28,0.0,0.0,77,0.00,CLR,SKC,0.00,WeatherDisplay:10.37,2013-03-28 17:25:00,
2013-03-29 04:30:00,45.0,38.2,30.05,NNE,22,0.0,0.0,77,0.00,CLR,SKC,0.00,WeatherDisplay:10.37,2013-03-28 17:30:00,
2013-03-29 04:35:00,44.8,38.0,30.05,NNE,22,0.0,0.0,77,0.00,CLR,SKC,0.00,WeatherDisplay:10.37,2013-03-28 17:35:00,
2013-03-29 04:40:00,44.8,38.0,30.05,NE,45,0.0,0.0,77,0.00,CLR,SKC,0.00,WeatherDisplay:10.37,2013-03-28 17:40:00,
2013-03-29 04:45:00,44.8,38.0,30.06,NNE,22,0.0,0.0,77,0.00,CLR,SKC,0.00,WeatherDisplay:10.37,2013-03-28 17:45:00,
2013-03-29 04:51:00,44.8,38.0,30.06,NNE,22,0.0,0.0,77,0.00,CLR,SKC,0.00,WeatherDisplay:10.37,2013-03-28 17:51:00,
2013-03-29 04:56:00,45.0,38.5,30.06,NE,45,0.0,0.0,78,0.00,CLR,SKC,0.00,WeatherDisplay:10.37,2013-03-28 17:56:00,
2013-03-29 05:01:00,45.1,38.7,30.06,NNE,22,0.0,0.0,78,0.00,CLR,SKC,0.00,WeatherDisplay:10.37,2013-03-28 18:01:00,
2013-03-29 05:07:00,45.1,38.7,30.06,NNE,22,0.0,0.0,78,0.00,CLR,SKC,0.00,WeatherDisplay:10.37,2013-03-28 18:07:00,
2013-03-29 05:12:00,45.3,38.9,30.05,ENE,68,0.0,0.0,78,0.00,CLR,SKC,0.00,WeatherDisplay:10.37,2013-03-28 18:12:00,
2013-03-29 05:17:00,45.5,39.0,30.06,NNE,22,0.0,0.0,78,0.00,CLR,SKC,0.00,WeatherDisplay:10.37,2013-03-28 18:17:00,
2013-03-29 05:22:00,45.5,39.0,30.06,NE,45,0.0,0.0,78,0.00,CLR,SKC,0.00,WeatherDisplay:10.37,2013-03-28 18:22:00,
2013-03-29 05:27:00,45.7,39.2,30.06,NE,45,0.0,0.0,78,0.00,CLR,SKC,0.00,WeatherDisplay:10.37,2013-03-28 18:27:00,
2013-03-29 05:32:00,45.9,39.4,30.05,NNE,22,0.0,0.0,78,0.00,CLR,SKC,0.00,WeatherDisplay:10.37,2013-03-28 18:32:00,
2013-03-29 05:37:00,46.0,39.6,30.06,ENE,68,0.0,0.0,78,0.00,CLR,SKC,0.00,WeatherDisplay:10.37,2013-03-28 18:37:00,
2013-03-29 05:43:00,46.2,39.7,30.06,NNE,22,0.0,0.0,78,0.00,CLR,SKC,0.00,WeatherDisplay:10.37,2013-03-28 18:43:00,
2013-03-29 05:48:00,46.2,39.7,30.06,ENE,68,0.0,0.0,78,0.00,CLR,SKC,0.00,WeatherDisplay:10.37,2013-03-28 18:48:00,
2013-03-29 05:53:00,46.2,39.7,30.06,NE,45,0.0,0.0,78,0.00,CLR,SKC,0.00,WeatherDisplay:10.37,2013-03-28 18:53:00,
2013-03-29 05:58:00,46.2,39.7,30.06,ENE,68,0.0,0.0,78,0.00,CLR,SKC,0.00,WeatherDisplay:10.37,2013-03-28 18:58:00,
2013-03-29 06:03:00,46.2,39.7,30.06,NE,45,0.0,0.0,78,0.00,CLR,SKC,0.00,WeatherDisplay:10.37,2013-03-28 19:03:00,
2013-03-29 06:08:00,46.2,39.7,30.06,NE,45,0.0,0.0,78,0.00,CLR,SKC,0.00,WeatherDisplay:10.37,2013-03-28 19:08:00,
2013-03-29 06:13:00,46.6,40.1,30.06,ENE,68,0.0,0.0,78,0.00,CLR,SKC,0.00,WeatherDisplay:10.37,2013-03-28 19:13:00,
2013-03-29 06:18:00,46.6,40.1,30.06,NNE,22,0.0,0.0,78,0.00,CLR,SKC,0.00,WeatherDisplay:10.37,2013-03-28 19:18:00,
2013-03-29 06:24:00,46.8,40.3,30.06,ENE,68,0.0,0.0,78,0.00,CLR,SKC,0.00,WeatherDisplay:10.37,2013-03-28 19:24:00,
2013-03-29 06:29:00,46.8,40.3,30.06,NE,45,0.0,0.0,78,0.00,CLR,SKC,0.00,WeatherDisplay:10.37,2013-03-28 19:29:00,
2013-03-29 06:34:00,46.8,40.3,30.06,NE,45,0.0,0.0,78,0.00,CLR,SKC,0.00,WeatherDisplay:10.37,2013-03-28 19:34:00,
2013-03-29 06:39:00,46.9,40.4,30.07,NE,45,0.0,0.0,78,0.00,CLR,SKC,0.00,WeatherDisplay:10.37,2013-03-28 19:39:00,
2013-03-29 06:44:00,46.9,40.4,30.06,ENE,68,0.0,0.0,78,0.00,CLR,SKC,0.00,WeatherDisplay:10.37,2013-03-28 19:44:00,
2013-03-29 06:49:00,47.1,40.6,30.06,NNE,22,0.0,0.0,78,0.00,CLR,SKC,0.00,WeatherDisplay:10.37,2013-03-28 19:49:00,
2013-03-29 06:55:00,47.1,40.6,30.06,NNE,22,0.0,0.0,78,0.00,CLR,SKC,0.00,WeatherDisplay:10.37,2013-03-28 19:55:00,
2013-03-29 07:00:00,47.1,40.6,30.07,NNE,22,0.0,0.0,78,0.00,CLR,SKC,0.00,WeatherDisplay:10.37,2013-03-28 20:00:00,
2013-03-29 07:05:00,47.3,40.8,30.07,NNE,22,0.0,0.0,78,0.00,CLR,SKC,0.00,WeatherDisplay:10.37,2013-03-28 20:05:00,
2013-03-29 07:10:00,47.3,40.8,30.07,NNE,28,0.0,0.0,78,0.00,CLR,SKC,0.00,WeatherDisplay:10.37,2013-03-28 20:10:00,
2013-03-29 07:15:00,47.5,41.0,30.07,NE,45,0.0,0.0,78,0.00,CLR,SKC,0.00,WeatherDisplay:10.37,2013-03-28 20:15:00,
2013-03-29 07:20:00,47.5,41.0,30.07,ENE,68,0.0,0.0,78,0.00,CLR,SKC,0.00,WeatherDisplay:10.37,2013-03-28 20:20:00,
2013-03-29 07:25:00,47.5,40.6,30.07,ENE,68,0.0,0.0,77,0.00,CLR,SKC,0.00,WeatherDisplay:10.37,2013-03-28 20:25:00,
2013-03-29 07:30:00,47.3,40.5,30.07,NE,45,0.0,0.0,77,0.00,CLR,SKC,0.00,WeatherDisplay:10.37,2013-03-28 20:30:00,
2013-03-29 07:35:00,47.1,40.3,30.07,NE,45,0.0,0.0,77,0.00,CLR,SKC,0.00,WeatherDisplay:10.37,2013-03-28 20:35:00,
2013-03-29 07:40:00,46.9,40.1,30.08,ENE,68,0.0,0.0,77,0.00,CLR,SKC,0.00,WeatherDisplay:10.37,2013-03-28 20:40:00,
2013-03-29 07:46:00,46.8,39.9,30.08,NNE,22,0.0,0.0,77,0.00,CLR,SKC,0.00,WeatherDisplay:10.37,2013-03-28 20:46:00,
2013-03-29 07:51:00,46.6,40.1,30.08,ENE,68,0.0,0.0,78,0.00,CLR,SKC,0.00,WeatherDisplay:10.37,2013-03-28 20:51:00,
2013-03-29 07:56:00,46.2,39.7,30.08,NNE,22,0.0,0.0,78,0.00,CLR,SKC,0.00,WeatherDisplay:10.37,2013-03-28 20:56:00,
2013-03-29 08:01:00,46.2,39.7,30.07,NE,45,0.0,0.0,78,0.00,CLR,SKC,0.00,WeatherDisplay:10.37,2013-03-28 21:01:00,
2013-03-29 08:06:00,46.2,39.7,30.08,NE,45,0.0,0.0,78,0.00,CLR,SKC,0.00,WeatherDisplay:10.37,2013-03-28 21:06:00,
2013-03-29 08:12:00,46.2,39.7,30.08,NNE,22,0.0,0.0,78,0.00,CLR,SKC,0.00,WeatherDisplay:10.37,2013-03-28 21:12:00,
2013-03-29 08:17:00,46.2,40.1,30.08,ENE,68,0.0,0.0,79,0.00,CLR,SKC,0.00,WeatherDisplay:10.37,2013-03-28 21:17:00,
2013-03-29 08:22:00,46.2,40.1,30.08,ENE,68,0.0,0.0,79,0.00,CLR,SKC,0.00,WeatherDisplay:10.37,2013-03-28 21:22:00,
2013-03-29 08:27:00,46.4,40.2,30.08,ENE,68,0.0,0.0,79,0.00,CLR,SKC,0.00,WeatherDisplay:10.37,2013-03-28 21:27:00,
2013-03-29 08:32:00,46.6,40.4,30.09,East,90,0.0,0.0,79,0.00,CLR,SKC,0.00,WeatherDisplay:10.37,2013-03-28 21:32:00,
2013-03-29 08:38:00,46.6,40.4,30.08,NE,45,0.0,0.0,79,0.00,CLR,SKC,0.00,WeatherDisplay:10.37,2013-03-28 21:38:00,
2013-03-29 08:43:00,46.8,40.9,30.08,ESE,112,0.0,0.0,80,0.00,CLR,SKC,0.00,WeatherDisplay:10.37,2013-03-28 21:43:00,
2013-03-29 08:48:00,46.9,41.1,30.08,SE,135,0.0,0.0,80,0.00,CLR,SKC,0.00,WeatherDisplay:10.37,2013-03-28 21:48:00,
2013-03-29 08:53:00,47.1,41.3,30.08,SSE,158,0.0,0.0,80,0.00,CLR,SKC,0.00,WeatherDisplay:10.37,2013-03-28 21:53:00,
2013-03-29 08:58:00,47.1,41.6,30.08,SSW,202,0.0,0.0,81,0.00,CLR,SKC,0.00,WeatherDisplay:10.37,2013-03-28 21:58:00,
2013-03-29 09:04:00,47.8,42.3,30.08,South,180,1.6,1.6,81,0.00,CLR,SKC,0.00,WeatherDisplay:10.37,2013-03-28 22:04:00,
2013-03-29 09:09:00,48.0,42.5,30.08,SSE,158,1.1,0.0,81,0.00,CLR,SKC,0.00,WeatherDisplay:10.37,2013-03-28 22:09:00,
2013-03-29 09:14:00,48.4,42.8,30.08,SSW,202,0.0,0.0,81,0.00,CLR,SKC,0.00,WeatherDisplay:10.37,2013-03-28 22:14:00,
2013-03-29 09:19:00,48.9,43.3,30.08,South,180,0.0,0.0,81,0.00,CLR,SKC,0.00,WeatherDisplay:10.37,2013-03-28 22:19:00,
2013-03-29 09:24:00,49.6,44.0,30.09,SE,135,1.1,0.0,81,0.00,CLR,SKC,0.00,WeatherDisplay:10.37,2013-03-28 22:24:00,
2013-03-29 09:29:00,50.4,44.7,30.08,SSW,202,1.3,1.3,81,0.00,CLR,SKC,0.00,WeatherDisplay:10.37,2013-03-28 22:29:00,
2013-03-29 09:34:00,50.7,44.8,30.09,SSW,202,0.0,0.0,80,0.00,CLR,SKC,0.00,WeatherDisplay:10.37,2013-03-28 22:34:00,
2013-03-29 09:39:00,50.9,44.6,30.09,South,180,0.0,0.0,79,0.00,CLR,SKC,0.00,WeatherDisplay:10.37,2013-03-28 22:39:00,
2013-03-29 09:44:00,51.3,45.0,30.09,SSW,202,0.9,0.9,79,0.00,CLR,SKC,0.00,WeatherDisplay:10.37,2013-03-28 22:44:00,
2013-03-29 09:50:00,51.6,45.3,30.09,SSE,158,2.3,2.3,79,0.00,CLR,SKC,0.00,WeatherDisplay:10.37,2013-03-28 22:50:00,
2013-03-29 09:55:00,51.6,45.0,30.09,SSW,200,2.0,2.0,78,0.00,CLR,SKC,0.00,WeatherDisplay:10.37,2013-03-28 22:55:00,
2013-03-29 10:00:00,52.0,45.0,30.09,SSW,203,2.0,2.0,77,0.00,CLR,SKC,0.00,WeatherDisplay:10.37,2013-03-28 23:00:00,
2013-03-29 10:05:00,52.2,45.2,30.09,SSW,202,3.8,3.8,77,0.00,CLR,SKC,0.00,WeatherDisplay:10.37,2013-03-28 23:05:00,
2013-03-29 10:10:00,52.3,45.3,30.09,ESE,112,1.1,1.1,77,0.00,CLR,SKC,0.00,WeatherDisplay:10.37,2013-03-28 23:10:00,
2013-03-29 10:15:00,52.5,45.5,30.10,South,180,1.3,1.3,77,0.00,CLR,SKC,0.00,WeatherDisplay:10.37,2013-03-28 23:15:00,
2013-03-29 10:20:00,52.9,45.5,30.10,South,180,1.3,1.3,76,0.00,CLR,SKC,0.00,WeatherDisplay:10.37,2013-03-28 23:20:00,
2013-03-29 10:25:00,52.9,45.5,30.10,South,180,0.0,0.0,76,0.00,CLR,SKC,0.00,WeatherDisplay:10.37,2013-03-28 23:25:00,
2013-03-29 10:30:00,53.2,45.9,30.10,South,180,2.3,2.3,76,0.00,CLR,SKC,0.00,WeatherDisplay:10.37,2013-03-28 23:30:00,
2013-03-29 10:36:00,53.4,45.7,30.10,SW,225,1.1,1.1,75,0.00,CLR,SKC,0.00,WeatherDisplay:10.37,2013-03-28 23:36:00,
2013-03-29 10:41:00,53.8,46.0,30.10,SSW,202,2.3,2.3,75,0.00,CLR,SKC,0.00,WeatherDisplay:10.37,2013-03-28 23:41:00,
2013-03-29 10:46:00,53.8,45.7,30.10,South,180,3.5,3.8,74,0.00,CLR,SKC,0.00,WeatherDisplay:10.37,2013-03-28 23:46:00,
2013-03-29 10:51:00,53.8,45.7,30.10,South,180,1.1,1.1,74,0.00,CLR,SKC,0.00,WeatherDisplay:10.37,2013-03-28 23:51:00,
2013-03-29 10:57:00,53.8,45.7,30.10,SW,225,1.6,1.6,74,0.00,CLR,SKC,0.00,WeatherDisplay:10.37,2013-03-28 23:57:00,
2013-03-29 11:02:00,54.0,45.9,30.10,SW,225,1.1,1.1,74,0.00,CLR,SKC,0.00,WeatherDisplay:10.37,2013-03-29 00:02:00,
2013-03-29 11:07:00,54.1,46.0,30.09,South,180,0.0,0.0,74,0.00,CLR,SKC,0.00,WeatherDisplay:10.37,2013-03-29 00:07:00,
2013-03-29 11:12:00,54.1,46.0,30.10,West,270,5.8,5.8,74,0.00,CLR,SKC,0.00,WeatherDisplay:10.37,2013-03-29 00:12:00,
2013-03-29 11:17:00,54.3,46.2,30.10,South,180,2.7,2.7,74,0.00,CLR,SKC,0.00,WeatherDisplay:10.37,2013-03-29 00:17:00,
2013-03-29 11:23:00,54.3,46.2,30.10,SSE,158,1.1,1.1,74,0.00,CLR,SKC,0.00,WeatherDisplay:10.37,2013-03-29 00:23:00,
2013-03-29 11:28:00,54.3,46.2,30.10,South,180,2.3,2.3,74,0.00,CLR,SKC,0.00,WeatherDisplay:10.37,2013-03-29 00:28:00,
2013-03-29 11:33:00,54.3,46.2,30.10,South,180,4.6,4.6,74,0.00,CLR,SKC,0.00,WeatherDisplay:10.37,2013-03-29 00:33:00,
2013-03-29 11:38:00,54.5,46.4,30.10,WSW,248,2.0,2.0,74,0.00,CLR,SKC,0.00,WeatherDisplay:10.37,2013-03-29 00:38:00,
2013-03-29 11:43:00,54.9,46.7,30.10,South,180,3.5,3.5,74,0.00,CLR,SKC,0.00,WeatherDisplay:10.37,2013-03-29 00:43:00,
2013-03-29 11:48:00,55.0,46.5,30.10,SSW,202,0.0,0.0,73,0.00,CLR,SKC,0.00,WeatherDisplay:10.37,2013-03-29 00:48:00,
2013-03-29 11:54:00,55.4,46.5,30.10,SSE,158,4.6,4.6,72,0.00,CLR,SKC,0.00,WeatherDisplay:10.37,2013-03-29 00:54:00,
2013-03-29 11:59:00,55.4,46.5,30.10,SW,225,3.8,3.8,72,0.00,CLR,SKC,0.00,WeatherDisplay:10.37,2013-03-29 00:59:00,
2013-03-29 12:04:00,55.2,46.3,30.10,South,180,2.7,2.7,72,0.00,CLR,SKC,0.00,WeatherDisplay:10.37,2013-03-29 01:04:00,
2013-03-29 12:09:00,55.2,46.3,30.10,SE,135,1.1,1.3,72,0.00,CLR,SKC,0.00,WeatherDisplay:10.37,2013-03-29 01:09:00,
2013-03-29 12:14:00,55.2,46.3,30.09,SW,225,2.3,2.4,72,0.00,CLR,SKC,0.00,WeatherDisplay:10.37,2013-03-29 01:14:00,
2013-03-29 12:19:00,55.6,46.7,30.09,SW,225,0.0,0.0,72,0.00,CLR,SKC,0.00,WeatherDisplay:10.37,2013-03-29 01:19:00,
2013-03-29 12:25:00,55.6,46.7,30.09,SW,215,1.0,2.0,72,0.00,CLR,SKC,0.00,WeatherDisplay:10.37,2013-03-29 01:25:00,
2013-03-29 12:30:00,55.8,46.9,30.09,SSW,202,2.3,2.3,72,0.00,CLR,SKC,0.00,WeatherDisplay:10.37,2013-03-29 01:30:00,
2013-03-29 12:35:00,55.8,46.9,30.09,ENE,68,2.5,2.5,72,0.00,CLR,SKC,0.00,WeatherDisplay:10.37,2013-03-29 01:35:00,
2013-03-29 12:40:00,55.8,46.9,30.08,South,185,0.0,2.0,72,0.00,CLR,SKC,0.00,WeatherDisplay:10.37,2013-03-29 01:40:00,
2013-03-29 12:45:00,56.1,46.8,30.08,SSW,206,0.0,0.0,71,0.00,CLR,SKC,0.00,WeatherDisplay:10.37,2013-03-29 01:45:00,
2013-03-29 12:50:00,56.3,46.6,30.08,South,189,1.0,2.0,70,0.00,CLR,SKC,0.00,WeatherDisplay:10.37,2013-03-29 01:50:00,
2013-03-29 12:55:00,56.5,46.8,30.08,South,186,1.0,1.0,70,0.00,CLR,SKC,0.00,WeatherDisplay:10.37,2013-03-29 01:55:00,
2013-03-29 13:00:00,56.4,46.7,30.08,SW,225,0.0,2.0,70,0.00,CLR,SKC,0.00,WeatherDisplay:10.37,2013-03-29 02:00:00,
2013-03-29 13:05:00,56.5,46.8,30.08,South,172,0.0,0.0,70,0.00,CLR,SKC,0.00,WeatherDisplay:10.37,2013-03-29 02:05:00,
2013-03-29 13:10:00,56.8,47.2,30.08,SSE,164,0.0,0.0,70,0.00,CLR,SKC,0.00,WeatherDisplay:10.37,2013-03-29 02:10:00,
2013-03-29 13:15:00,57.0,46.9,30.08,South,180,1.1,1.2,69,0.00,CLR,SKC,0.00,WeatherDisplay:10.37,2013-03-29 02:15:00,
2013-03-29 13:20:00,57.0,46.6,30.08,South,174,1.0,2.0,68,0.00,CLR,SKC,0.00,WeatherDisplay:10.37,2013-03-29 02:20:00,
2013-03-29 13:25:00,57.0,46.6,30.08,South,169,3.0,3.0,68,0.00,CLR,SKC,0.00,WeatherDisplay:10.37,2013-03-29 02:25:00,
2013-03-29 13:30:00,57.1,46.6,30.08,South,180,5.0,5.0,68,0.00,CLR,SKC,0.00,WeatherDisplay:10.37,2013-03-29 02:30:00,
2013-03-29 13:35:00,57.4,46.5,30.07,WSW,248,2.3,2.3,67,0.00,CLR,SKC,0.00,WeatherDisplay:10.37,2013-03-29 02:35:00,
2013-03-29 13:40:00,57.4,46.9,30.07,North,0,0.0,0.0,68,0.00,CLR,SKC,0.00,WeatherDisplay:10.37,2013-03-29 02:40:00,
2013-03-29 13:45:00,57.7,47.2,30.07,WSW,248,5.8,5.8,68,0.00,CLR,SKC,0.00,WeatherDisplay:10.37,2013-03-29 02:45:00,
2013-03-29 13:50:00,57.7,46.9,30.07,SW,225,2.3,2.3,67,0.00,CLR,SKC,0.00,WeatherDisplay:10.37,2013-03-29 02:50:00,
2013-03-29 13:55:00,57.9,47.0,30.06,East,90,1.3,1.4,67,0.00,CLR,SKC,0.00,WeatherDisplay:10.37,2013-03-29 02:55:00,
2013-03-29 14:01:00,57.9,47.0,30.06,West,270,2.5,2.5,67,0.00,CLR,SKC,0.00,WeatherDisplay:10.37,2013-03-29 03:01:00,
2013-03-29 14:06:00,58.3,47.4,30.06,South,180,0.0,0.0,67,0.00,CLR,SKC,0.00,WeatherDisplay:10.37,2013-03-29 03:06:00,
2013-03-29 14:12:00,58.6,47.3,30.06,SSE,158,3.5,3.5,66,0.00,CLR,SKC,0.00,WeatherDisplay:10.37,2013-03-29 03:12:00,
2013-03-29 14:17:00,58.8,47.1,30.05,South,180,1.1,1.1,65,0.00,CLR,SKC,0.00,WeatherDisplay:10.37,2013-03-29 03:17:00,
2013-03-29 14:22:00,58.8,46.7,30.06,South,180,1.1,1.1,64,0.00,CLR,SKC,0.00,WeatherDisplay:10.37,2013-03-29 03:22:00,
2013-03-29 14:27:00,58.8,47.1,30.05,WSW,248,2.3,2.3,65,0.00,CLR,SKC,0.00,WeatherDisplay:10.37,2013-03-29 03:27:00,
2013-03-29 14:33:00,59.2,47.4,30.05,SSW,202,2.3,2.3,65,0.00,CLR,SKC,0.00,WeatherDisplay:10.37,2013-03-29 03:33:00,
2013-03-29 14:38:00,59.2,47.0,30.05,SSW,202,2.5,2.5,64,0.00,CLR,SKC,0.00,WeatherDisplay:10.37,2013-03-29 03:38:00,
2013-03-29 14:43:00,59.5,47.3,30.05,South,180,1.1,1.1,64,0.00,CLR,SKC,0.00,WeatherDisplay:10.37,2013-03-29 03:43:00,
2013-03-29 14:48:00,59.7,47.1,30.04,SE,135,1.3,1.3,63,0.00,CLR,SKC,0.00,WeatherDisplay:10.37,2013-03-29 03:48:00,
2013-03-29 14:53:00,59.9,46.8,30.05,SW,225,3.4,3.4,62,0.00,CLR,SKC,0.00,WeatherDisplay:10.37,2013-03-29 03:53:00,
2013-03-29 14:58:00,60.1,47.0,30.04,South,180,2.3,2.3,62,0.00,CLR,SKC,0.00,WeatherDisplay:10.37,2013-03-29 03:58:00,
2013-03-29 15:00:00,60.1,46.6,30.04,WSW,248,2.3,2.3,61,0.00,CLR,SKC,0.00,WeatherDisplay:10.37,2013-03-29 04:00:00,
2013-03-29 15:01:00,60.1,46.6,30.04,WSW,248,2.3,2.3,61,0.00,CLR,SKC,0.00,WeatherDisplay:10.37,2013-03-29 04:01:00,
2013-03-29 15:02:00,60.3,46.8,30.04,South,180,3.6,3.6,61,0.00,CLR,SKC,0.00,WeatherDisplay:10.37,2013-03-29 04:02:00,
2013-03-29 15:07:00,60.6,47.1,30.04,WNW,292,0.0,0.0,61,0.00,CLR,SKC,0.00,WeatherDisplay:10.37,2013-03-29 04:07:00,
2013-03-29 15:12:00,61.2,47.2,30.04,South,180,3.5,3.5,60,0.00,CLR,SKC,0.00,WeatherDisplay:10.37,2013-03-29 04:12:00,
2013-03-29 15:17:00,61.3,46.9,30.03,WNW,292,1.1,1.1,59,0.00,CLR,SKC,0.00,WeatherDisplay:10.37,2013-03-29 04:17:00,
2013-03-29 15:22:00,61.5,46.6,30.03,SSW,202,6.9,6.9,58,0.00,CLR,SKC,0.00,WeatherDisplay:10.37,2013-03-29 04:22:00,
2013-03-29 15:27:00,61.9,46.9,30.03,WSW,248,2.7,2.7,58,0.00,CLR,SKC,0.00,WeatherDisplay:10.37,2013-03-29 04:27:00,
2013-03-29 15:33:00,62.2,46.8,30.03,SSW,202,0.0,0.0,57,0.00,CLR,SKC,0.00,WeatherDisplay:10.37,2013-03-29 04:33:00,
2013-03-29 15:38:00,62.8,46.8,30.02,SSW,202,3.5,3.5,56,0.00,CLR,SKC,0.00,WeatherDisplay:10.37,2013-03-29 04:38:00,
2013-03-29 15:43:00,63.1,46.7,30.02,SSW,202,2.5,2.5,55,0.00,CLR,SKC,0.00,WeatherDisplay:10.37,2013-03-29 04:43:00,
2013-03-29 15:48:00,63.1,46.7,30.02,WSW,248,1.1,1.1,55,0.00,CLR,SKC,0.00,WeatherDisplay:10.37,2013-03-29 04:48:00,
2013-03-29 15:53:00,63.3,46.9,30.02,SW,225,2.3,2.3,55,0.00,CLR,SKC,0.00,WeatherDisplay:10.37,2013-03-29 04:53:00,
2013-03-29 15:58:00,63.3,46.9,30.02,WSW,248,3.5,0.0,55,0.00,CLR,SKC,0.00,WeatherDisplay:10.37,2013-03-29 04:58:00,
2013-03-29 16:03:00,63.1,46.7,30.02,WSW,248,3.5,3.5,55,0.00,CLR,SKC,0.00,WeatherDisplay:10.37,2013-03-29 05:03:00,
2013-03-29 16:09:00,62.8,45.9,30.01,West,270,0.0,0.0,54,0.00,CLR,SKC,0.00,WeatherDisplay:10.37,2013-03-29 05:09:00,
2013-03-29 16:14:00,62.4,45.5,30.01,WSW,248,1.1,1.1,54,0.00,CLR,SKC,0.00,WeatherDisplay:10.37,2013-03-29 05:14:00,
2013-03-29 16:19:00,62.4,46.0,30.01,SSE,158,1.3,1.3,55,0.00,CLR,SKC,0.00,WeatherDisplay:10.37,2013-03-29 05:19:00,
2013-03-29 16:24:00,62.4,46.0,30.01,South,180,3.8,3.8,55,0.00,CLR,SKC,0.00,WeatherDisplay:10.37,2013-03-29 05:24:00,
2013-03-29 16:29:00,62.2,45.9,30.00,SSW,202,1.6,1.6,55,0.00,CLR,SKC,0.00,WeatherDisplay:10.37,2013-03-29 05:29:00,
2013-03-29 16:34:00,62.4,46.0,30.01,SW,225,1.1,1.1,55,0.00,CLR,SKC,0.00,WeatherDisplay:10.37,2013-03-29 05:34:00,
2013-03-29 16:40:00,62.4,46.0,30.00,South,180,1.3,1.3,55,0.00,CLR,SKC,0.00,WeatherDisplay:10.37,2013-03-29 05:40:00,
2013-03-29 16:45:00,62.4,46.0,30.00,WSW,242,1.0,2.0,55,0.00,CLR,SKC,0.00,WeatherDisplay:10.37,2013-03-29 05:45:00,
2013-03-29 16:50:00,62.2,45.9,30.01,SW,235,2.0,3.0,55,0.00,CLR,SKC,0.00,WeatherDisplay:10.37,2013-03-29 05:50:00,
2013-03-29 16:55:00,62.2,45.9,30.01,SW,225,3.6,3.6,55,0.00,CLR,SKC,0.00,WeatherDisplay:10.37,2013-03-29 05:55:00,
2013-03-29 17:00:00,62.2,45.9,30.00,South,180,3.5,3.5,55,0.00,CLR,SKC,0.00,WeatherDisplay:10.37,2013-03-29 06:00:00,
2013-03-29 17:05:00,61.9,45.5,30.00,NE,45,0.0,0.0,55,0.00,CLR,SKC,0.00,WeatherDisplay:10.37,2013-03-29 06:05:00,
2013-03-29 17:10:00,61.9,46.0,30.00,West,270,1.1,1.1,56,0.00,CLR,SKC,0.00,WeatherDisplay:10.37,2013-03-29 06:10:00,
2013-03-29 17:15:00,62.2,46.3,30.00,West,270,0.0,0.0,56,0.00,CLR,SKC,0.00,WeatherDisplay:10.37,2013-03-29 06:15:00,
2013-03-29 17:20:00,62.2,45.9,30.00,SW,225,4.5,4.5,55,0.00,CLR,SKC,0.00,WeatherDisplay:10.37,2013-03-29 06:20:00,
2013-03-29 17:25:00,62.2,45.9,30.00,South,180,0.0,0.0,55,0.00,CLR,SKC,0.00,WeatherDisplay:10.37,2013-03-29 06:25:00,
2013-03-29 17:31:00,61.9,46.0,30.00,WSW,248,0.0,0.0,56,0.00,CLR,SKC,0.00,WeatherDisplay:10.37,2013-03-29 06:31:00,
2013-03-29 17:36:00,61.9,46.0,30.00,SW,225,1.1,1.1,56,0.00,CLR,SKC,0.00,WeatherDisplay:10.37,2013-03-29 06:36:00,
2013-03-29 17:41:00,61.7,45.8,30.00,SW,225,0.0,0.0,56,0.00,CLR,SKC,0.00,WeatherDisplay:10.37,2013-03-29 06:41:00,
2013-03-29 17:46:00,61.7,46.3,30.00,SSE,158,0.0,0.0,57,0.00,CLR,SKC,0.00,WeatherDisplay:10.37,2013-03-29 06:46:00,
2013-03-29 17:52:00,61.7,45.8,30.00,WSW,248,0.0,0.0,56,0.00,CLR,SKC,0.00,WeatherDisplay:10.37,2013-03-29 06:52:00,
2013-03-29 17:57:00,61.7,46.3,30.00,SSW,202,0.0,0.0,57,0.00,CLR,SKC,0.00,WeatherDisplay:10.37,2013-03-29 06:57:00,
2013-03-29 18:02:00,61.5,46.1,30.00,South,180,1.3,1.3,57,0.00,CLR,SKC,0.00,WeatherDisplay:10.37,2013-03-29 07:02:00,
2013-03-29 18:07:00,61.5,46.1,30.00,WNW,292,0.0,0.0,57,0.00,CLR,SKC,0.00,WeatherDisplay:10.37,2013-03-29 07:07:00,
2013-03-29 18:12:00,61.5,46.1,30.00,SSW,202,2.3,2.3,57,0.00,CLR,SKC,0.00,WeatherDisplay:10.37,2013-03-29 07:12:00,
2013-03-29 18:17:00,61.3,46.0,30.00,SSW,202,1.1,1.1,57,0.00,CLR,SKC,0.00,WeatherDisplay:10.37,2013-03-29 07:17:00,
2013-03-29 18:22:00,61.3,46.0,29.99,WSW,248,0.9,0.9,57,0.00,CLR,SKC,0.00,WeatherDisplay:10.37,2013-03-29 07:22:00,
2013-03-29 18:28:00,61.2,45.8,29.99,SSW,202,0.0,0.0,57,0.00,CLR,SKC,0.00,WeatherDisplay:10.37,2013-03-29 07:28:00,
2013-03-29 18:33:00,61.2,45.8,29.99,South,180,0.0,0.0,57,0.00,CLR,SKC,0.00,WeatherDisplay:10.37,2013-03-29 07:33:00,
2013-03-29 18:38:00,61.0,46.1,29.99,WSW,248,0.0,0.0,58,0.00,CLR,SKC,0.00,WeatherDisplay:10.37,2013-03-29 07:38:00,
2013-03-29 18:43:00,60.8,45.9,29.99,SSE,158,0.0,0.0,58,0.00,CLR,SKC,0.00,WeatherDisplay:10.37,2013-03-29 07:43:00,
2013-03-29 18:48:00,60.6,46.2,29.99,SSW,202,0.0,0.0,59,0.00,CLR,SKC,0.00,WeatherDisplay:10.37,2013-03-29 07:48:00,
2013-03-29 18:53:00,60.6,46.2,29.99,West,270,0.0,0.0,59,0.00,CLR,SKC,0.00,WeatherDisplay:10.37,2013-03-29 07:53:00,
2013-03-29 18:58:00,60.4,46.0,29.99,SW,225,0.0,0.0,59,0.00,CLR,SKC,0.00,WeatherDisplay:10.37,2013-03-29 07:58:00,
2013-03-29 19:04:00,60.4,46.5,29.99,SSW,202,0.0,0.0,60,0.00,CLR,SKC,0.00,WeatherDisplay:10.37,2013-03-29 08:04:00,
2013-03-29 19:09:00,60.1,46.1,29.99,SW,225,0.0,0.0,60,0.00,CLR,SKC,0.00,WeatherDisplay:10.37,2013-03-29 08:09:00,
2013-03-29 19:14:00,60.1,46.1,29.99,WSW,248,0.0,0.0,60,0.00,CLR,SKC,0.00,WeatherDisplay:10.37,2013-03-29 08:14:00,
2013-03-29 19:19:00,59.9,46.0,29.99,WSW,248,0.0,0.0,60,0.00,CLR,SKC,0.00,WeatherDisplay:10.37,2013-03-29 08:19:00,
2013-03-29 19:24:00,59.7,45.8,29.99,West,270,0.0,0.0,60,0.00,CLR,SKC,0.00,WeatherDisplay:10.37,2013-03-29 08:24:00,
2013-03-29 19:30:00,59.7,45.8,29.99,NW,311,0.0,0.0,60,0.00,CLR,SKC,0.00,WeatherDisplay:10.37,2013-03-29 08:30:00,
2013-03-29 19:35:00,59.5,45.6,29.99,NNW,338,0.0,0.0,60,0.00,CLR,SKC,0.00,WeatherDisplay:10.37,2013-03-29 08:35:00,
2013-03-29 19:40:00,59.5,45.6,29.99,NNW,344,0.0,0.0,60,0.00,CLR,SKC,0.00,WeatherDisplay:10.37,2013-03-29 08:40:00,
2013-03-29 19:45:00,59.2,45.3,29.99,NNE,23,0.0,0.0,60,0.00,CLR,SKC,0.00,WeatherDisplay:10.37,2013-03-29 08:45:00,
2013-03-29 19:50:00,59.2,45.3,29.99,NNE,26,0.0,0.0,60,0.00,CLR,SKC,0.00,WeatherDisplay:10.37,2013-03-29 08:50:00,
2013-03-29 19:55:00,59.0,45.6,29.99,NNE,24,0.0,0.0,61,0.00,CLR,SKC,0.00,WeatherDisplay:10.37,2013-03-29 08:55:00,
2013-03-29 20:00:00,58.8,45.4,29.99,NNW,348,0.0,0.0,61,0.00,CLR,SKC,0.00,WeatherDisplay:10.37,2013-03-29 09:00:00,
2013-03-29 20:05:00,58.8,45.4,29.99,NW,315,0.0,0.0,61,0.00,CLR,SKC,0.00,WeatherDisplay:10.37,2013-03-29 09:05:00,
2013-03-29 20:10:00,58.8,45.8,29.99,NW,315,0.0,0.0,62,0.00,CLR,SKC,0.00,WeatherDisplay:10.37,2013-03-29 09:10:00,
2013-03-29 20:15:00,58.8,45.8,29.99,NNW,338,0.0,0.0,62,0.00,CLR,SKC,0.00,WeatherDisplay:10.37,2013-03-29 09:15:00,
2013-03-29 20:20:00,59.0,46.0,29.99,NNW,338,0.0,0.0,62,0.00,CLR,SKC,0.00,WeatherDisplay:10.37,2013-03-29 09:20:00,
2013-03-29 20:25:00,59.2,46.6,29.99,NNW,338,0.0,0.0,63,0.00,CLR,SKC,0.00,WeatherDisplay:10.37,2013-03-29 09:25:00,
2013-03-29 20:30:00,59.4,46.8,29.99,NNE,22,0.0,0.0,63,0.00,CLR,SKC,0.00,WeatherDisplay:10.37,2013-03-29 09:30:00,
2013-03-29 20:35:00,59.4,46.8,29.99,NNE,22,0.0,0.0,63,0.00,CLR,SKC,0.00,WeatherDisplay:10.37,2013-03-29 09:35:00,
2013-03-29 20:40:00,59.5,46.9,30.00,NNE,22,0.0,0.0,63,0.00,CLR,SKC,0.00,WeatherDisplay:10.37,2013-03-29 09:40:00,
2013-03-29 20:45:00,59.4,46.8,30.00,SE,135,0.0,0.0,63,0.00,CLR,SKC,0.00,WeatherDisplay:10.37,2013-03-29 09:45:00,
2013-03-29 20:51:00,59.4,46.8,30.00,SE,135,0.0,0.0,63,0.00,CLR,SKC,0.00,WeatherDisplay:10.37,2013-03-29 09:51:00,
2013-03-29 20:56:00,59.4,46.8,30.00,ENE,68,0.0,0.0,63,0.00,CLR,SKC,0.00,WeatherDisplay:10.37,2013-03-29 09:56:00,
2013-03-29 21:01:00,59.4,46.8,30.00,SE,135,0.0,0.0,63,0.00,CLR,SKC,0.00,WeatherDisplay:10.37,2013-03-29 10:01:00,
2013-03-29 21:07:00,59.2,46.6,30.00,NNE,22,0.0,0.0,63,0.00,CLR,SKC,0.00,WeatherDisplay:10.37,2013-03-29 10:07:00,
2013-03-29 21:12:00,59.2,46.6,30.00,ENE,68,0.0,0.0,63,0.00,CLR,SKC,0.00,WeatherDisplay:10.37,2013-03-29 10:12:00,
2013-03-29 21:17:00,59.2,46.6,29.99,ENE,68,0.0,0.0,63,0.00,CLR,SKC,0.00,WeatherDisplay:10.37,2013-03-29 10:17:00,
2013-03-29 21:22:00,59.2,46.6,30.00,NNE,22,0.0,0.0,63,0.00,CLR,SKC,0.00,WeatherDisplay:10.37,2013-03-29 10:22:00,
2013-03-29 21:27:00,59.2,46.6,30.00,NE,45,0.0,0.0,63,0.00,CLR,SKC,0.00,WeatherDisplay:10.37,2013-03-29 10:27:00,
2013-03-29 21:32:00,59.2,46.6,30.00,North,0,0.0,0.0,63,0.00,CLR,SKC,0.00,WeatherDisplay:10.37,2013-03-29 10:32:00,
2013-03-29 21:37:00,59.2,47.0,29.99,NNW,338,0.0,0.0,64,0.00,CLR,SKC,0.00,WeatherDisplay:10.37,2013-03-29 10:37:00,
2013-03-29 21:42:00,59.0,46.8,29.99,NE,45,0.0,0.0,64,0.00,CLR,SKC,0.00,WeatherDisplay:10.37,2013-03-29 10:42:00,
2013-03-29 21:47:00,58.8,46.2,30.00,NNW,338,0.0,0.0,63,0.00,CLR,SKC,0.00,WeatherDisplay:10.37,2013-03-29 10:47:00,
2013-03-29 21:53:00,58.6,46.5,30.00,North,0,0.0,0.0,64,0.00,CLR,SKC,0.00,WeatherDisplay:10.37,2013-03-29 10:53:00,
2013-03-29 21:58:00,58.6,46.5,30.00,North,0,0.0,0.0,64,0.00,CLR,SKC,0.00,WeatherDisplay:10.37,2013-03-29 10:58:00,
2013-03-29 22:03:00,58.3,46.2,29.99,NNE,22,0.0,0.0,64,0.00,CLR,SKC,0.00,WeatherDisplay:10.37,2013-03-29 11:03:00,
2013-03-29 22:08:00,58.3,46.2,29.99,North,0,0.0,0.0,64,0.00,CLR,SKC,0.00,WeatherDisplay:10.37,2013-03-29 11:08:00,
2013-03-29 22:13:00,58.3,46.2,29.99,WNW,292,0.0,0.0,64,0.00,CLR,SKC,0.00,WeatherDisplay:10.37,2013-03-29 11:13:00,
2013-03-29 22:18:00,57.9,45.8,29.99,NE,45,1.1,1.1,64,0.00,CLR,SKC,0.00,WeatherDisplay:10.37,2013-03-29 11:18:00,
2013-03-29 22:24:00,57.9,45.8,29.99,North,0,0.0,0.0,64,0.00,CLR,SKC,0.00,WeatherDisplay:10.37,2013-03-29 11:24:00,
2013-03-29 22:29:00,57.7,46.0,29.99,North,0,0.0,0.0,65,0.00,CLR,SKC,0.00,WeatherDisplay:10.37,2013-03-29 11:29:00,
2013-03-29 22:34:00,57.7,46.0,29.99,WNW,292,0.0,0.0,65,0.00,CLR,SKC,0.00,WeatherDisplay:10.37,2013-03-29 11:34:00,
2013-03-29 22:39:00,57.7,46.0,29.99,North,0,0.0,0.0,65,0.00,CLR,SKC,0.00,WeatherDisplay:10.37,2013-03-29 11:39:00,
2013-03-29 22:45:00,57.7,46.0,29.99,North,350,0.0,0.0,65,0.00,CLR,SKC,0.00,WeatherDisplay:10.37,2013-03-29 11:45:00,
2013-03-29 22:50:00,57.7,46.5,30.00,North,0,0.0,0.0,66,0.00,CLR,SKC,0.00,WeatherDisplay:10.37,2013-03-29 11:50:00,
2013-03-29 22:55:00,57.7,46.5,30.00,NNE,22,0.0,0.0,66,0.00,CLR,SKC,0.00,WeatherDisplay:10.37,2013-03-29 11:55:00,
2013-03-29 23:00:00,57.7,46.5,30.00,NNE,18,0.0,0.0,66,0.00,CLR,SKC,0.00,WeatherDisplay:10.37,2013-03-29 12:00:00,
2013-03-29 23:05:00,57.7,46.5,30.00,NW,315,0.0,0.0,66,0.00,CLR,SKC,0.00,WeatherDisplay:10.37,2013-03-29 12:05:00,
2013-03-29 23:10:00,57.7,46.5,30.00,SE,135,0.0,0.0,66,0.00,CLR,SKC,0.00,WeatherDisplay:10.37,2013-03-29 12:10:00,
2013-03-29 23:15:00,57.7,46.5,30.00,SE,135,0.0,0.0,66,0.00,CLR,SKC,0.00,WeatherDisplay:10.37,2013-03-29 12:15:00,
2013-03-29 23:20:00,57.6,46.7,30.00,ESE,112,0.0,0.0,67,0.00,CLR,SKC,0.00,WeatherDisplay:10.37,2013-03-29 12:20:00,
2013-03-29 23:25:00,57.6,46.7,30.00,SSE,158,0.0,0.0,67,0.00,CLR,SKC,0.00,WeatherDisplay:10.37,2013-03-29 12:25:00,
2013-03-29 23:30:00,57.6,46.7,30.00,SSW,202,0.0,0.0,67,0.00,CLR,SKC,0.00,WeatherDisplay:10.37,2013-03-29 12:30:00,
2013-03-29 23:35:00,57.4,46.5,30.00,ESE,112,0.0,0.0,67,0.00,CLR,SKC,0.00,WeatherDisplay:10.37,2013-03-29 12:35:00,
2013-03-29 23:40:00,57.4,46.5,30.00,SSE,158,0.0,0.0,67,0.00,CLR,SKC,0.00,WeatherDisplay:10.37,2013-03-29 12:40:00,
2013-03-29 23:46:00,57.4,46.5,30.00,SSW,202,0.0,0.0,67,0.00,CLR,SKC,0.00,WeatherDisplay:10.37,2013-03-29 12:46:00,
2013-03-29 23:51:00,57.4,46.5,30.00,West,270,0.0,0.0,67,0.00,CLR,SKC,0.00,WeatherDisplay:10.37,2013-03-29 12:51:00,
2013-03-29 23:56:00,57.2,46.3,30.00,West,270,0.0,0.0,67,0.00,CLR,SKC,0.00,WeatherDisplay:10.37,2013-03-29 12:56:00,